Time,TemperatureF,DewpointF,PressureIn,WindDirection,WindDirectionDegrees,WindSpeedMPH,WindSpeedGustMPH,Humidity,HourlyPrecipIn,Conditions,Clouds,dailyrainin,SoftwareType,DateUTC
2013-02-04 00:10:00,13.5,9.0,30.50,WNW,291,2.0,4.0,82,0.00,,,0.00,weatherlink.com 1.10,2013-02-04 07:10:00,
2013-02-04 00:25:00,12.0,8.0,30.49,NW,311,4.0,6.0,85,0.00,,,0.00,weatherlink.com 1.10,2013-02-04 07:25:00,
2013-02-04 00:40:00,10.9,7.0,30.50,West,281,2.0,6.0,83,0.00,,,0.00,weatherlink.com 1.10,2013-02-04 07:40:00,
2013-02-04 00:55:00,11.4,7.0,30.50,NW,311,6.0,7.0,83,0.00,,,0.00,weatherlink.com 1.10,2013-02-04 07:55:00,
2013-02-04 01:10:00,9.0,4.0,30.50,NW,319,1.0,6.0,81,0.00,,,0.00,weatherlink.com 1.10,2013-02-04 08:10:00,
2013-02-04 01:25:00,9.1,6.0,30.51,NW,319,5.0,9.0,85,0.00,,,0.00,weatherlink.com 1.10,2013-02-04 08:25:00,
2013-02-04 01:40:00,10.4,7.0,30.51,NW,314,3.0,7.0,85,0.00,,,0.00,weatherlink.com 1.10,2013-02-04 08:40:00,
2013-02-04 01:55:00,9.7,6.0,30.52,WSW,248,0.0,2.0,84,0.00,,,0.00,weatherlink.com 1.10,2013-02-04 08:55:00,
2013-02-04 02:10:00,8.2,5.0,30.52,WNW,302,1.0,3.0,87,0.00,,,0.00,weatherlink.com 1.10,2013-02-04 09:10:00,
2013-02-04 02:25:00,7.8,5.0,30.52,NNW,342,0.0,3.0,86,0.00,,,0.00,weatherlink.com 1.10,2013-02-04 09:25:00,
2013-02-04 02:40:00,5.9,3.0,30.53,SW,229,0.0,2.0,88,0.00,,,0.00,weatherlink.com 1.10,2013-02-04 09:40:00,
2013-02-04 02:55:00,4.1,1.0,30.53,NNE,15,0.0,2.0,88,0.00,,,0.00,weatherlink.com 1.10,2013-02-04 09:55:00,
2013-02-04 03:10:00,4.1,1.0,30.53,NW,309,0.0,0.0,85,0.00,,,0.00,weatherlink.com 1.10,2013-02-04 10:10:00,
2013-02-04 03:26:00,2.6,-1.0,30.53,NW,322,1.0,2.0,86,0.00,,,0.00,weatherlink.com 1.10,2013-02-04 10:26:00,
2013-02-04 03:41:00,2.9,-1.0,30.53,NNW,336,1.0,3.0,84,0.00,,,0.00,weatherlink.com 1.10,2013-02-04 10:41:00,
2013-02-04 03:56:00,3.4,0.0,30.53,North,356,1.0,5.0,86,0.00,,,0.00,weatherlink.com 1.10,2013-02-04 10:56:00,
2013-02-04 04:11:00,1.9,-2.0,30.53,WNW,291,0.0,4.0,84,0.00,,,0.00,weatherlink.com 1.10,2013-02-04 11:11:00,
2013-02-04 04:26:00,0.8,-3.0,30.53,NNW,338,0.0,3.0,84,0.00,,,0.00,weatherlink.com 1.10,2013-02-04 11:26:00,
2013-02-04 04:41:00,0.4,-4.0,30.54,NW,311,2.0,6.0,83,0.00,,,0.00,weatherlink.com 1.10,2013-02-04 11:41:00,
2013-02-04 04:56:00,1.0,-2.0,30.53,NNW,335,1.0,1.0,86,0.00,,,0.00,weatherlink.com 1.10,2013-02-04 11:56:00,
2013-02-04 05:11:00,1.0,-4.0,30.53,WNW,294,0.0,3.0,81,0.00,,,0.00,weatherlink.com 1.10,2013-02-04 12:11:00,
2013-02-04 05:26:00,-1.7,-6.0,30.54,North,356,0.0,2.0,83,0.00,,,0.00,weatherlink.com 1.10,2013-02-04 12:26:00,
2013-02-04 05:41:00,-1.1,-4.0,30.54,North,6,0.0,0.0,86,0.00,,,0.00,weatherlink.com 1.10,2013-02-04 12:41:00,
2013-02-04 05:56:00,0.1,-4.0,30.54,NNW,327,1.0,1.0,84,0.00,,,0.00,weatherlink.com 1.10,2013-02-04 12:56:00,
2013-02-04 06:11:00,-2.3,-6.0,30.54,NW,312,1.0,2.0,84,0.00,,,0.00,weatherlink.com 1.10,2013-02-04 13:11:00,
2013-02-04 06:26:00,-2.7,-7.0,30.55,NW,325,0.0,0.0,83,0.00,,,0.00,weatherlink.com 1.10,2013-02-04 13:26:00,
2013-02-04 06:42:00,-0.9,-5.0,30.55,NW,321,2.0,3.0,83,0.00,,,0.00,weatherlink.com 1.10,2013-02-04 13:42:00,
2013-02-04 06:57:00,-4.7,-9.0,30.55,NW,318,1.0,4.0,82,0.00,,,0.00,weatherlink.com 1.10,2013-02-04 13:57:00,
2013-02-04 07:12:00,-3.5,-8.0,30.56,NW,305,0.0,2.0,82,0.00,,,0.00,weatherlink.com 1.10,2013-02-04 14:12:00,
2013-02-04 07:27:00,-4.0,-8.0,30.57,NNE,12,0.0,2.0,84,0.00,,,0.00,weatherlink.com 1.10,2013-02-04 14:27:00,
2013-02-04 07:42:00,-4.0,-8.0,30.58,North,11,0.0,2.0,82,0.00,,,0.00,weatherlink.com 1.10,2013-02-04 14:42:00,
2013-02-04 07:57:00,-1.5,-6.0,30.58,West,263,0.0,1.0,81,0.00,,,0.00,weatherlink.com 1.10,2013-02-04 14:57:00,
2013-02-04 08:12:00,-0.3,-6.0,30.59,WNW,302,1.0,2.0,78,0.00,,,0.00,weatherlink.com 1.10,2013-02-04 15:12:00,
2013-02-04 08:27:00,1.8,-4.0,30.59,WNW,302,0.0,0.0,76,0.00,,,0.00,weatherlink.com 1.10,2013-02-04 15:27:00,
2013-02-04 08:42:00,3.9,-2.0,30.59,WNW,294,0.0,1.0,75,0.00,,,0.00,weatherlink.com 1.10,2013-02-04 15:42:00,
2013-02-04 08:57:00,4.1,-3.0,30.59,NNW,346,1.0,3.0,73,0.00,,,0.00,weatherlink.com 1.10,2013-02-04 15:57:00,
2013-02-04 09:12:00,6.7,-1.0,30.59,NW,325,1.0,3.0,72,0.00,,,0.00,weatherlink.com 1.10,2013-02-04 16:12:00,
2013-02-04 09:27:00,8.8,1.0,30.59,NW,324,0.0,2.0,69,0.00,,,0.00,weatherlink.com 1.10,2013-02-04 16:27:00,
2013-02-04 09:42:00,10.3,0.0,30.58,NW,324,1.0,2.0,64,0.00,,,0.00,weatherlink.com 1.10,2013-02-04 16:42:00,
2013-02-04 09:57:00,12.0,1.0,30.57,NW,322,1.0,1.0,62,0.00,,,0.00,weatherlink.com 1.10,2013-02-04 16:57:00,
2013-02-04 10:13:00,13.3,2.0,30.57,NW,305,1.0,2.0,60,0.00,,,0.00,weatherlink.com 1.10,2013-02-04 17:13:00,
2013-02-04 10:28:00,15.2,3.0,30.56,WNW,297,1.0,1.0,58,0.00,,,0.00,weatherlink.com 1.10,2013-02-04 17:28:00,
2013-02-04 10:43:00,17.1,3.0,30.55,WNW,294,0.0,0.0,54,0.00,,,0.00,weatherlink.com 1.10,2013-02-04 17:43:00,
2013-02-04 10:58:00,18.9,4.0,30.54,WNW,293,0.0,0.0,53,0.00,,,0.00,weatherlink.com 1.10,2013-02-04 17:58:00,
2013-02-04 20:04:00,23.3,1.0,30.40,North,352,3.0,7.0,38,0.00,,,0.01,weatherlink.com 1.10,2013-02-05 03:04:00,
2013-02-04 20:13:00,23.1,1.0,30.40,NW,324,4.0,7.0,38,0.00,,,0.01,weatherlink.com 1.10,2013-02-05 03:13:00,
2013-02-04 20:28:00,22.9,1.0,30.41,NNW,343,4.0,7.0,38,0.00,,,0.01,weatherlink.com 1.10,2013-02-05 03:28:00,
2013-02-04 20:43:00,19.1,2.0,30.41,NW,305,3.0,5.0,47,0.00,,,0.01,weatherlink.com 1.10,2013-02-05 03:43:00,
2013-02-04 20:58:00,18.8,0.0,30.41,WNW,290,0.0,2.0,44,0.00,,,0.01,weatherlink.com 1.10,2013-02-05 03:58:00,
2013-02-04 21:13:00,18.0,1.0,30.43,WNW,287,3.0,6.0,48,0.00,,,0.01,weatherlink.com 1.10,2013-02-05 04:13:00,
2013-02-04 21:29:00,18.8,1.0,30.43,NE,41,1.0,2.0,45,0.00,,,0.01,weatherlink.com 1.10,2013-02-05 04:29:00,
2013-02-04 21:44:00,16.0,1.0,30.43,WNW,300,1.0,3.0,51,0.00,,,0.01,weatherlink.com 1.10,2013-02-05 04:44:00,
2013-02-04 21:59:00,15.2,-1.0,30.43,NNE,23,3.0,5.0,50,0.00,,,0.01,weatherlink.com 1.10,2013-02-05 04:59:00,
2013-02-04 22:14:00,13.9,0.0,30.44,WNW,291,2.0,5.0,55,0.00,,,0.01,weatherlink.com 1.10,2013-02-05 05:14:00,
2013-02-04 22:29:00,14.0,0.0,30.45,NW,308,2.0,5.0,55,0.00,,,0.01,weatherlink.com 1.10,2013-02-05 05:29:00,
2013-02-04 22:44:00,14.5,1.0,30.45,NNW,335,1.0,1.0,54,0.00,,,0.01,weatherlink.com 1.10,2013-02-05 05:44:00,
2013-02-04 22:59:00,12.3,0.0,30.45,WNW,300,1.0,2.0,57,0.00,,,0.01,weatherlink.com 1.10,2013-02-05 05:59:00,
2013-02-04 23:14:00,10.3,-2.0,30.46,NNW,340,2.0,3.0,59,0.00,,,0.01,weatherlink.com 1.10,2013-02-05 06:14:00,
2013-02-04 23:29:00,10.6,0.0,30.45,NW,316,2.0,4.0,62,0.00,,,0.01,weatherlink.com 1.10,2013-02-05 06:29:00,
2013-02-04 23:44:00,11.8,-1.0,30.46,NNW,331,5.0,8.0,58,0.00,,,0.01,weatherlink.com 1.10,2013-02-05 06:44:00,
2013-02-04 23:59:00,10.5,-2.0,30.46,North,352,4.0,7.0,58,0.00,,,0.01,weatherlink.com 1.10,2013-02-05 06:59:00,